Date String (YYYY-MM-DD hh:mm:ss) UTC,Instrument flags,Ambient pressure (hPa),Sample flow (lpm),Bypass flow (lpm),Sample temperature (°C),Ambient temperature (°C),ASC tube jacket temperature (°C),LED temperature (°C),Box temperature (°C),Sample RH (%),Span deviation,Mass concentration (μg/m³),Mass concentration (μg/m³),Mass concentration (μg/m³)
DateTimeUTC,F1_M11,P_M11,Q1_M11,Q2_M11,T1_M11,T2_M11,T3_M11,T4_M11,T5_M11,U1_M11,ZSPAN_M11,X0_M11,X2_M11,X1_M11
2022-05-04 19:00:00,,0824.4,5.00,0.00,23.6,23.0,00.0,32.6,25.5,26.2,0000.0,0002.01,0001.52,0001.32
2022-05-04 19:01:00,,0824.4,5.01,0.00,23.6,23.1,00.0,32.6,25.5,26.1,0000.0,0001.98,0001.48,0001.27
2022-05-04 19:02:00,,0824.3,5.00,0.00,23.6,23.1,00.0,32.6,25.5,25.8,0000.0,0001.97,0001.45,0001.23
2022-05-04 19:03:00,,0824.3,4.99,0.00,23.7,23.1,00.0,32.6,25.5,25.6,0000.0,0001.85,0001.35,0001.16
2022-05-04 19:04:00,,0824.3,5.00,0.00,23.7,23.1,00.0,32.6,25.5,25.6,0000.0,0001.77,0001.28,0001.11
2022-05-04 19:05:00,,0824.3,5.00,0.00,23.7,23.2,00.0,32.6,25.6,25.6,0000.0,0001.69,0001.23,0001.07
2022-05-04 19:06:00,,0824.3,5.01,0.00,23.7,23.2,00.0,32.6,25.6,25.7,0000.0,0001.58,0001.18,0001.03
2022-05-04 19:07:00,,0824.3,4.99,0.00,23.7,23.2,00.0,32.6,25.6,25.5,0000.0,0001.57,0001.15,0000.98
2022-05-04 19:08:00,,0824.3,5.00,0.00,23.7,23.2,00.0,32.6,25.6,25.5,0000.0,0001.62,0001.12,0000.94
2022-05-04 19:09:00,,0824.3,5.01,0.00,23.8,23.2,00.0,32.6,25.6,25.4,0000.0,0001.58,0001.08,0000.91
2022-05-04 19:10:00,,0824.3,4.99,0.00,23.8,23.3,00.0,32.7,25.7,25.4,0000.0,0001.56,0001.07,0000.89
2022-05-04 19:11:00,,0824.3,4.99,0.00,23.8,23.3,00.0,32.7,25.7,24.8,0000.0,0001.56,0001.07,0000.86
2022-05-04 19:12:00,,0824.2,4.99,0.00,23.9,23.3,00.0,32.7,25.7,24.7,0000.0,0001.56,0001.06,0000.84
2022-05-04 19:13:00,,0824.2,4.99,0.00,23.9,23.4,00.0,32.7,25.8,24.8,0000.0,0001.59,0001.05,0000.81
2022-05-04 19:14:00,,0824.1,5.01,0.00,23.9,23.4,00.0,32.7,25.9,24.2,0000.0,0001.68,0001.07,0000.79
2022-05-04 19:15:00,,0824.2,4.99,0.00,23.9,23.4,00.0,32.7,25.9,23.8,0000.0,0001.75,0001.08,0000.76
2022-05-04 19:16:00,,0824.2,4.99,0.00,24.0,23.4,00.0,32.8,25.9,24.1,0000.0,0001.92,0001.10,0000.74
2022-05-04 19:17:00,,0824.2,5.00,0.00,24.0,23.4,00.0,32.8,25.9,24.0,0000.0,0002.04,0001.11,0000.72
2022-05-04 19:18:00,,0824.2,5.01,0.00,24.0,23.5,00.0,32.8,26.0,24.2,0000.0,0002.01,0001.09,0000.71
2022-05-04 19:19:00,,0824.2,4.99,0.00,24.0,23.5,00.0,32.8,25.9,24.2,0000.0,0002.10,0001.12,0000.69
2022-05-04 19:20:00,,0824.2,5.00,0.00,24.1,23.5,00.0,32.8,25.9,24.2,0000.0,0002.15,0001.12,0000.66
2022-05-04 19:21:00,,0824.2,5.01,0.00,24.1,23.5,00.0,32.9,26.0,24.6,0000.0,0002.22,0001.13,0000.64
2022-05-04 19:22:00,,0824.2,4.99,0.00,24.1,23.5,00.0,32.9,26.0,25.1,0000.0,0002.16,0001.10,0000.62
2022-05-04 19:23:00,,0824.1,5.00,0.00,24.1,23.5,00.0,32.9,26.0,24.8,0000.0,0002.15,0001.09,0000.62
2022-05-04 19:24:00,,0824.2,5.01,0.00,24.1,23.6,00.0,32.9,26.0,24.7,0000.0,0002.18,0001.10,0000.60
2022-05-04 19:25:00,,0824.1,4.99,0.00,24.2,23.6,00.0,32.9,26.1,24.9,0000.0,0002.09,0001.06,0000.60
2022-05-04 19:26:00,,0824.1,5.01,0.00,24.2,23.6,00.0,33.0,26.1,23.8,0000.0,0002.08,0001.05,0000.60
2022-05-04 19:27:00,,0824.1,4.99,0.00,24.2,23.6,00.0,33.0,26.1,24.2,0000.0,0001.98,0001.02,0000.59
2022-05-04 19:28:00,,0824.2,5.01,0.00,24.2,23.6,00.0,33.0,26.1,24.6,0000.0,0001.81,0000.98,0000.58
2022-05-04 19:29:00,,0824.2,4.99,0.00,24.2,23.6,00.0,33.0,26.1,25.1,0000.0,0001.85,0000.99,0000.58
2022-05-04 19:30:00,,0824.2,5.00,0.00,24.3,23.6,00.0,33.0,26.1,24.3,0000.0,0001.68,0000.93,0000.57
2022-05-04 19:31:00,,0824.2,4.99,0.00,24.3,23.6,00.0,33.0,26.2,24.7,0000.0,0001.66,0000.94,0000.56
2022-05-04 19:32:00,,0824.2,5.00,0.00,24.3,23.6,00.0,33.1,26.2,23.1,0000.0,0001.56,0000.89,0000.55
2022-05-04 19:33:00,,0824.2,5.00,0.00,24.3,23.6,00.0,33.1,26.2,23.4,0000.0,0001.71,0000.89,0000.54
2022-05-04 19:34:00,,0824.3,4.99,0.00,24.3,23.7,00.0,33.1,26.2,22.8,0000.0,0001.74,0000.89,0000.52
2022-05-04 19:35:00,,0824.3,5.01,0.00,24.4,23.7,00.0,33.1,26.3,22.5,0000.0,0001.85,0000.91,0000.51
2022-05-04 19:36:00,,0824.2,5.00,0.00,24.4,23.7,00.0,33.2,26.3,23.1,0000.0,0002.14,0000.91,0000.50
2022-05-04 19:37:00,,0824.2,5.00,0.00,24.4,23.7,00.0,33.2,26.3,23.4,0000.0,0002.83,0000.95,0000.50
2022-05-04 19:38:00,,0824.1,5.00,0.00,24.4,23.7,00.0,33.2,26.3,24.5,0000.0,0002.91,0000.98,0000.50
2022-05-04 19:39:00,,0824.1,4.99,0.00,24.4,23.7,00.0,33.2,26.3,23.6,0000.0,0003.01,0001.02,0000.51
2022-05-04 19:40:00,,0824.2,5.01,0.00,24.4,23.7,00.0,33.2,26.3,24.2,0000.0,0002.98,0001.00,0000.51
2022-05-04 19:41:00,,0824.1,4.99,0.00,24.4,23.7,00.0,33.2,26.3,24.9,0000.0,0003.18,0001.05,0000.54
2022-05-04 19:42:00,,0824.1,5.01,0.00,24.5,23.7,00.0,33.3,26.3,26.4,0000.0,0003.09,0001.03,0000.57
2022-05-04 19:43:00,,0824.1,5.00,0.00,24.5,23.8,00.0,33.3,26.3,26.7,0000.0,0003.11,0001.07,0000.61
2022-05-04 19:44:00,,0824.2,5.01,0.00,24.5,23.8,00.0,33.3,26.3,26.7,0000.0,0002.94,0001.07,0000.65
2022-05-04 19:45:00,,0824.1,4.99,0.00,24.5,23.8,00.0,33.3,26.4,24.8,0000.0,0003.01,0001.12,0000.68
2022-05-04 19:46:00,,0824.1,5.00,0.00,24.5,23.8,00.0,33.3,26.3,25.7,0000.0,0002.94,0001.12,0000.72
2022-05-04 19:47:00,,0824.1,5.01,0.00,24.5,23.8,00.0,33.3,26.4,24.0,0000.0,0002.84,0001.15,0000.75
2022-05-04 19:48:00,,0824.1,4.99,0.00,24.6,23.8,00.0,33.4,26.4,23.6,0000.0,0002.10,0001.16,0000.77
2022-05-04 19:49:00,,0824.1,5.01,0.00,24.6,23.8,00.0,33.4,26.5,23.2,0000.0,0002.03,0001.15,0000.78
2022-05-04 19:50:00,,0824.1,5.00,0.00,24.6,23.9,00.0,33.4,26.5,24.1,0000.0,0002.00,0001.14,0000.77
2022-05-04 19:51:00,,0824.1,4.99,0.00,24.6,23.9,00.0,33.4,26.5,24.3,0000.0,0002.07,0001.17,0000.77
2022-05-04 19:52:00,,0824.2,5.01,0.00,24.6,23.9,00.0,33.4,26.5,24.9,0000.0,0001.87,0001.13,0000.76
2022-05-04 19:53:00,,0824.2,4.99,0.00,24.6,23.9,00.0,33.4,26.5,23.9,0000.0,0001.82,0001.10,0000.74
2022-05-04 19:54:00,,0824.2,5.00,0.00,24.7,23.9,00.0,33.5,26.5,23.5,0000.0,0001.81,0001.09,0000.73
2022-05-04 19:55:00,,0824.2,5.00,0.00,24.7,23.9,00.0,33.5,26.6,23.4,0000.0,0001.84,0001.09,0000.71
2022-05-04 19:56:00,,0824.1,5.00,0.00,24.7,23.9,00.0,33.5,26.6,23.6,0000.0,0001.77,0001.05,0000.70
2022-05-04 19:57:00,,0824.2,4.99,0.00,24.7,23.9,00.0,33.5,26.6,23.3,0000.0,0001.75,0001.03,0000.68
2022-05-04 19:58:00,,0824.1,4.99,0.00,24.7,24.0,00.0,33.5,26.6,23.2,0000.0,0001.71,0001.01,0000.65
2022-05-04 19:59:00,,0824.1,5.01,0.00,24.7,24.0,00.0,33.5,26.6,23.5,0000.0,0001.73,0000.98,0000.65
